IPM 2/BREEZE-M

导读

IPM 2/BREEZE-M卫星由独立国家联合体(CIS)于2020年12月14日08:00发射升空,BREEZE-M一般指微风-M上面级,承担发射后的星箭分离入轨任务。IPM系列卫星多承担空间物理探测、技术验证类任务,此次发射验证了相关火箭上面级的部署能力,推动航天运输与空间探测技术的迭代发展,是CIS在商业航天与探测领域的一次重要实践。

基本信息
目录编号:
47242
目录名称:
IPM 2/BREEZE-M
国际标识:
2020-097A
轨道中心:
EARTH
卫星名称:
IPM 2/BREEZE-M
卫星全名:
--
卫星状态:
在轨 (已飞行2009 天)
发射日期:
2020-12-14 UTC
国别 :
俄罗斯(独联体) (CIS)
星等 :
--
轨道信息
数据来源 国际轨道数据 AOE轨道数据
星历时间 2026-06-14T16:10:20+0800
15小时前
查看轨道信息
2026-06-15T05:00:00+0800
3小时前
查看轨道信息
半长轴 43619.516km 43619.638km
偏心率 0.008349 0.0083456
轨道倾角 5.354° 5.357°
近地点辐角 279.482° 279.504°
升交点赤经 76.757° 76.749°
平近点角 79.276° 262.633°
近地点 36877.199km 36877.468km
远地点 37605.559km 37605.534km
周期 1511.057分钟 1511.064分钟
每日圈数 0.952975 0.952971
详细信息
使用方式:
暂无
2D轨道图
3D轨道图
轨道高度分析图
轨道倾角分析图
轨道综合分析图
查看轨道综合分析图